TimeEDT,TemperatureF,Dew PointF,Humidity,Sea Level PressureIn,VisibilityMPH,Wind Direction,Wind SpeedMPH,Gust SpeedMPH,PrecipitationIn,Events,Conditions,WindDirDegrees,DateUTC
12:54 AM,60.1,59.0,96,30.02,4.0,Calm,Calm,-,N/A,,Clear,0,2012-10-06 04:54:00
1:54 AM,59.0,57.9,96,30.02,4.0,Calm,Calm,-,N/A,,Clear,0,2012-10-06 05:54:00
2:54 AM,59.0,57.9,96,30.01,4.0,Calm,Calm,-,N/A,,Clear,0,2012-10-06 06:54:00
3:54 AM,57.9,57.0,97,29.99,4.0,Calm,Calm,-,N/A,,Clear,0,2012-10-06 07:54:00
4:54 AM,57.9,57.0,97,29.99,4.0,Calm,Calm,-,N/A,,Clear,0,2012-10-06 08:54:00
5:54 AM,57.9,57.0,97,29.98,5.0,Calm,Calm,-,N/A,,Clear,0,2012-10-06 09:54:00
6:54 AM,57.9,57.0,97,29.98,4.0,Calm,Calm,-,N/A,,Clear,0,2012-10-06 10:54:00
7:33 AM,57.2,57.2,100,29.99,4.0,Calm,Calm,-,N/A,,Scattered Clouds,0,2012-10-06 11:33:00
7:41 AM,57.2,57.2,100,29.98,3.0,Calm,Calm,-,N/A,,Mostly Cloudy,0,2012-10-06 11:41:00
7:54 AM,59.0,59.0,100,29.99,2.5,Calm,Calm,-,N/A,,Mostly Cloudy,0,2012-10-06 11:54:00
8:02 AM,60.8,59.0,94,29.99,3.0,Calm,Calm,-,N/A,,Scattered Clouds,0,2012-10-06 12:02:00
8:54 AM,66.0,64.0,93,30.00,4.0,Calm,Calm,-,N/A,,Clear,0,2012-10-06 12:54:00
9:54 AM,73.9,68.0,82,29.99,10.0,West,8.1,-,N/A,,Clear,260,2012-10-06 13:54:00
10:54 AM,78.1,66.9,68,29.98,10.0,WSW,9.2,-,N/A,,Clear,240,2012-10-06 14:54:00
11:54 AM,81.0,64.9,58,29.97,10.0,West,10.4,-,N/A,,Clear,260,2012-10-06 15:54:00
12:54 PM,84.0,62.1,47,29.94,10.0,SW,8.1,-,N/A,,Mostly Cloudy,220,2012-10-06 16:54:00
1:54 PM,84.9,61.0,44,29.91,10.0,WSW,8.1,-,N/A,,Scattered Clouds,240,2012-10-06 17:54:00
2:54 PM,84.9,60.1,43,29.90,10.0,SW,12.7,-,N/A,,Scattered Clouds,220,2012-10-06 18:54:00
3:54 PM,84.9,59.0,41,29.88,10.0,SW,5.8,-,N/A,,Clear,220,2012-10-06 19:54:00
4:54 PM,84.0,59.0,43,29.88,10.0,SSW,8.1,-,N/A,,Clear,210,2012-10-06 20:54:00
5:54 PM,82.0,61.0,49,29.89,10.0,SW,3.5,-,N/A,,Clear,220,2012-10-06 21:54:00
7:54 PM,71.1,66.9,87,29.92,10.0,SSE,3.5,-,N/A,,Scattered Clouds,160,2012-10-06 23:54:00
8:54 PM,69.1,64.9,87,29.93,10.0,SSE,3.5,-,N/A,,Clear,150,2012-10-07 00:54:00
9:54 PM,70.0,66.0,87,29.94,10.0,Calm,Calm,-,N/A,,Clear,0,2012-10-07 01:54:00
10:54 PM,70.0,66.9,90,29.95,8.0,SSE,3.5,-,N/A,,Clear,150,2012-10-07 02:54:00
11:54 PM,70.0,66.9,90,29.94,8.0,Calm,Calm,-,N/A,,Clear,0,2012-10-07 03:54:00